Regional Weather Roundup
Issued by NWS

Home | Current Version | Previous Version | Text Only | Print | Product List | Glossary Off
Versions: 1 2 3 4 5 6 7 8 9 10 11 12 13 14 15 16 17 18 19 20 21 22 23 24 25 26 27 28 29 30 31 32 33 34 35 36 37 38 39 40 41 42 43 44 45 46 47 48 49 50

000
ASUS43 KIND 250809
RWRIN

WEATHER ROUNDUP FOR INDIANA
NATIONAL WEATHER SERVICE INDIANAPOLIS IN
400 AM EDT SUN JUN 25 2017

NOTE: "FAIR" INDICATES FEW OR NO CLOUDS BELOW 12,000 FEET WITH NO
SIGNIFICANT WEATHER AND/OR OBSTRUCTIONS TO VISIBILITY.

* - STATION DOES NOT REPORT WEATHER SUCH AS PRECIPITATION OR FOG.

+ - STATION NOT QUALITY CONTROLLED BY THE NATIONAL WEATHER SERVICE.
    USE DATA WITH CAUTION...ESPECIALLY DEWPOINT AND RELATIVE
    HUMIDITY OBSERVATIONS.

INZ001>003-010>013-019-020-250900-
NORTHWEST INDIANA

CITY           SKY/WX    TMP DP  RH WIND       PRES   REMARKS
GARY /AIRPORT/ MOCLDY    63  44  49 W13G20    30.06R
KNOX *+        MOCLDY    55  37  50 W5        30.04S
LA PORTE +     CLOUDY    57  47  69 SW7       30.04S
MICHIGAN CITY+ CLOUDY    55  46  71 SW3       30.04S
MONTICELLO +   PTCLDY    56  48  74 SW7       30.06F
VALPARAISO     CLEAR     59  49  69 W8        30.05S

$$

LMZ046-743>745-250900-
SOUTHERN LAKE MICHIGAN

STATION/POSITION TIME  TEMP    WIND        PRES    WAVE
                       AIR SEA DIR/SP/G            HT
                 (UTC) (F)     (DEG/KT/KT) (MB)    (FT)
BURNS HARBOR     0740   64     250/ 10/ 12 1017.6F
MICHIGAN CITY    0740   65     240/ 18/ 21   N/A
5NW MICH CITY    0800   65 67  290/ 17/ 23   N/A     3

$$

INZ004-005-014>016-021>024-250900-
NORTH CENTRAL INDIANA

CITY           SKY/WX    TMP DP  RH WIND       PRES   REMARKS
GOSHEN         MOCLDY    56  46  69 SW10      30.03F
LOGANSPORT +   PTCLDY    55  48  76 SW7       30.07F
PERU/GRISSOM   CLEAR     54  49  82 SW9       30.06S
ROCHESTER +    PTCLDY    59  46  63 SW6       30.05F
SOUTH BEND     CLOUDY    56  48  74 SW8       30.03F
WARSAW +       CLEAR     55  45  67 SW3       30.04F

$$

INZ006>009-017-018-025>027-250900-
NORTHEAST INDIANA

CITY           SKY/WX    TMP DP  RH WIND       PRES   REMARKS
AUBURN +       CLEAR     57  46  67 SW5       30.04F
FORT WAYNE     PTCLDY    55  49  80 SW9       30.05F
HUNTINGTON +   CLEAR     56  49  79 S5        30.05F
KENDALLVILLE + PTCLDY    56  49  76 SW7       30.04F

$$

INZ028-029-035-036-043>045-051>053-250900-
WEST CENTRAL INDIANA

CITY           SKY/WX    TMP DP  RH WIND       PRES   REMARKS
CRAWFORDSVL +  PTCLDY    52  51  93 SW6       30.10F
GREENCASTLE +  PTCLDY    54  50  87 CALM      30.12S
LAFAYETTE      PTCLDY    54  51  90 W3        30.07F
TERRE HAUTE    CLEAR     56  49  77 SW5       30.12F

$$

INZ030>032-037>040-046>048-054>057-064-065-250900-
CENTRAL INDIANA

CITY           SKY/WX    TMP DP  RH WIND       PRES   REMARKS
CP ATTERBURY + CLEAR     52  50  93 SW5       30.11F
FRANKFORT +    CLOUDY    57  51  81 SW3       30.10F
GREENWOOD *+   MOCLDY    55  51  87 CALM      30.11F
INDIANAPOLIS   PTCLDY    56  50  80 SW7       30.10F
-EAGLE CREEK   PTCLDY    58  48  69 CALM      30.09F
KOKOMO +       PTCLDY    56  48  74 SW7       30.08F
MARION +       CLEAR     54  48  82 SW7       30.08F
MT COMFORT *+  CLEAR     55  48  76 W5        30.10F
SHELBYVILLE    CLEAR     56  49  77 SW5       30.10F
ZIONSVILLE +   PTCLDY    54  49  81 SW6       30.11S

$$

INZ033-034-041-042-049-050-058-059-250900-
EAST CENTRAL INDIANA

CITY           SKY/WX    TMP DP  RH WIND       PRES   REMARKS
MUNCIE         CLEAR     59  48  67 SW6       30.08F
RICHMOND +     CLEAR     54  48  82 W3        30.11S

$$

INZ060-061-067>069-081>083-085>088-250900-
SOUTHWEST INDIANA

CITY           SKY/WX    TMP DP  RH WIND       PRES   REMARKS
EVANSVILLE     PTCLDY    59  53  80 CALM      30.16S
HUNTINGBURG *+ PTCLDY    58  54  86 CALM      30.16R
WASHINGTON +   CLEAR     56  52  85 CALM      30.13F

$$

INZ062-063-066-070>080-084-089>092-250900-
SOUTH CENTRAL AND SOUTHEAST INDIANA

CITY           SKY/WX    TMP DP  RH WIND       PRES   REMARKS
BEDFORD +      CLEAR     54  50  87 CALM      30.12F
BLOOMINGTON    PTCLDY    53  49  86 CALM      30.12F
MADISON *+     CLEAR     55  54  94 CALM      30.14F
NORTH VERNON + CLEAR     54  52  94 CALM      30.12F
SEYMOUR +      CLEAR     57  54  88 S3        30.12S

$$





USA.gov is the U.S. government's official web portal to all federal, state and local government web resources and services.